WESTFORD NEEDLES, 2367

Orbit data source: Space-Track

WESTFORD NEEDLES, 2367 is space debris originally from a launch on Thu, 09 May 1963 UTC launched from the Air Force Western Test Range (AFWTR). Debris objects in space refer to the collection of defunct objects orbiting the Earth. Examples of debris include non-operational satellites, rocket bodies, and fragments generated from explosions, collisions, or faulty payload assembly.

Loading next visibility...
Identifier
2367, 1963-014S
Orbit
Active
Country
Flag of USUS
Related business
Manufacturer
Unknown
Mission
Spacecraft
Bus & Motor
Unknown
Mass
Unknown
Launch date (UTC)
1963-05-09 (63 years ago)
Launch vehicle
Unknown
Launch site
Air Force Western Test Range (AFWTR)
Object type
Payload
Rocket body
Debris
Shape & HBR
Unknown shape, 0.2 m
Radar Cross Section
Medium (>0.1 m² and <1 m²)

Expand to show TLE details & history
Last TLE update: 14 hours ago

TLE from 14 hours ago
0 WESTFORD NEEDLES
1 02367U 63014S   26119.31145666  .00016130  00000-0  17003-1 0  9996
2 02367  84.2570  72.4900 2872891 164.7527 206.2724  9.03179120  7571
Epoch: 2026-04-29T07:28Z
TLE epoch observation values (Epoch: 2026-04-29T07:28:29.855Z)
Latitude
0.00004°
Longitude
103.09137°
Altitude
5,985.566 km
Speed
4.855 km/s
True Right ascension
04h 49m 57s
True Declination
0° 00' 00"
Sunlit
Object was in daylight at epoch
Visualization orbit readout
Latitude
Unknown
Longitude
Unknown
Altitude
Unknown
Speed
Unknown
Apparent Right ascension
Unknown
Apparent Declination
Unknown
Sunlit
N/A
Visualization observer readout
Local Sidereal Time
04:34:27
Azimuth
Unknown
Elevation
Unknown
Doppler factor
Unknown
Orbital elements
Apogee altitude
6,156.671 km
Perigee altitude
561.791 km
Semi-major axis
9,737.368 km
Eccentricity
0.28729
Inclination
84.257°
RAAN
72.49°
Arg. of periapsis
164.7527°
True anomaly
195.33105°
Mean anomaly
206.2724°
Eccentric anomaly
200.50617°
Mean motion
2.25882 °/min
Orbital period
159.38 mins
BSTAR
0.017003
Loading maneuver chart data...
Computing Atmospheric mass density...

Documentation

Showing up to 5 results
|